Probability
0 0 0 0 0 0 0 0 0 0 0 0 0 0 0 0 0 0 0 0 0 0 0 0 0 0 0 0 0 0 0 0 0 0 0 0 0 0
0 0 0 0 0 0 0 0 0 0 0 0 0 0 0 0 0 0 0 0 0 0 0 0 0 0 0 0 0 0 0 0 0 0 0 0 0 0
1 1 1 0 0 0 0 0 0 0 0 0 0 0 0 0 0 0 0 0 0 0 0 0 0 0 0 0 0 0 0 0 0 0 0 0 0 0
2 1 1 0 0 0 0 0 0 0 0 0 0 0 0 0 0 0 0 0 0 0 0 0 0 0 0 0 0 0 0 0 0 0 0 0 0 0
3 2 1 0 0 0 0 0 0 0 0 0 0 0 0 0 0 0 0 0 0 0 0 0 0 0 0 0 0 0 0 0 0 0 0 0 0 0
3 2 1 0 0 0 0 0 0 0 0 0 0 0 0 0 0 0 0 0 0 0 0 0 0 0 0 0 0 0 0 0 0 0 0 0 0 0
3 2 1 0 0 0 0 0 0 0 0 0 0 0 0 0 0 0 0 0 0 0 0 0 0 0 0 0 0 0 0 0 0 0 0 0 0 0
2 1 0 0 0 0 0 0 0 0 0 0 0 0 0 0 0 0 0 0 0 0 0 0 0 0 0 0 0 0 0 0 0 0 0 0 0 0
2 1 0 0 0 0 0 0 0 0 0 0 0 0 0 0 0 0 0 0 0 0 0 0 0 0 0 0 0 0 0 0 0 0 0 0 0 0
3 2 1 0 0 0 0 0 0 0 0 0 0 0 0 0 0 0 0 0 0 0 0 0 0 0 0 0 0 0 0 0 0 0 0 0 0 0
3 2 1 0 0 0 0 0 0 0 0 0 0 0 0 0 0 0 0 0 0 0 0 0 0 0 0 0 0 0 0 0 0 0 0 0 0 0
2 1 0 0 0 0 0 0 0 0 0 0 0 0 0 0 0 0 0 0 0 0 0 0 0 0 0 0 0 0 0 0 0 0 0 0 0 0
1 0 0 0 0 0 0 0 0 0 0 0 0 0 0 0 0 0 0 0 0 0 0 0 0 0 0 0 0 0 0 0 0 0 0 0 0 0
0 0 0 0 0 0 0 0 0 0 0 0 0 0 0 0 0 0 0 0 0 0 0 0 0 0 0 0 0 0 0 0 0 0 0 0 0 0
0 0 0 0 0 0 0 0 0 0 0 0 0 0 0 0 0 0 0 0 0 0 0 0 0 0 0 0 0 0 0 0 0 0 0 0 0 0
0 0 0 0 0 0 0 0 0 0 0 0 0 0 0 0 0 0 0 0 0 0 0 0 0 0 0 0 0 0 0 0 0 0 0 0 0 0
0 0 0 0 0 0 0 0 0 0 0 0 0 0 0 0 0 0 0 0 0 0 0 0 0 0 0 0 0 0 0 0 0 0 0 0 0 0
0 0 0 0 0 0 0 0 0 0 0 0 0 0 0 0 0 0 0 0 0 0 0 0 0 0 0 0 0 0 0 0 0 0 0 0 0 0
0 0 0 0 0 0 0 0 0 0 0 0 0 0 0 0 0 0 0 0 0 0 0 0 0 0 0 0 0 0 0 0 0 0 0 0 0 0
0 0 0 0 0 0 0 0 0 0 0 0 0 0 0 0 0 0 0 0 0 0 0 0 0 0 0 0 0 0 0 0 0 0 0 0 0 0
0 0 0 0 0 0 0 0 0 0 0 0 0 0 0 0 0 0 0 0 0 0 0 0 0 0 0 0 0 0 0 0 0 0 0 0 0 0
0 0 0 0 0 0 0 0 0 0 0 0 0 0 0 0 0 0 0 0 0 0 0 0 0 0 0 0 0 0 0 0 0 0 0 0 0 0
0 0 0 0 0 0 0 0 0 0 0 0 0 0 0 0 0 0 0 0 0 0 0 0 0 0 0 0 0 0 0 0 0 0 0 0 0 0
Wind_Speed
5 5 4 4 4 4 3 4 4 4 4 3 3 3 3 2 2 3 3 2 4 4 4 4 3 3 3 3 3 4 4 4 4 5 6 7 8 8
4 6 5 4 3 3 4 4 4 3 3 2 2 2 3 2 2 3 4 3 3 4 4 3 3 3 3 3 4 4 4 5 5 6 7 8 8 8
5 6 6 6 4 4 4 4 4 4 4 3 2 2 3 3 3 3 3 3 3 4 4 4 4 4 4 4 4 4 5 5 6 6 7 8 8 9
7 6 6 5 6 5 5 5 5 5 4 4 3 3 4 3 3 3 2 2 3 3 4 5 5 4 4 5 5 5 5 5 6 7 7 8 9 9
7 7 7 7 7 6 6 5 4 4 4 4 4 3 2 2 3 2 2 2 2 2 3 4 5 5 5 5 5 5 5 6 6 7 7 8 9 10
7 7 7 7 7 7 6 6 5 5 4 4 3 3 3 2 3 2 2 2 2 2 2 3 4 5 5 6 6 6 6 6 7 7 7 8 8 9
6 6 6 6 6 5 5 6 6 5 5 4 4 3 3 3 3 3 3 3 3 2 2 3 3 3 4 5 5 6 6 7 7 7 8 8 9 9
7 7 6 7 6 7 6 6 7 7 7 6 5 5 6 5 3 3 3 3 3 2 3 3 3 4 4 4 5 6 7 7 8 8 8 9 9 9
7 7 5 5 7 7 7 7 8 9 9 7 7 7 7 6 5 5 5 5 4 2 2 4 3 4 4 4 5 6 7 8 8 8 8 9 9 9
7 7 7 7 7 6 6 6 7 8 8 7 7 6 5 5 6 5 4 3 3 2 3 4 3 4 4 4 6 7 8 8 8 8 8 8 8 8
6 7 7 7 7 8 7 6 6 6 6 7 6 6 6 6 5 3 4 3 4 3 3 3 3 3 4 4 4 6 7 7 7 7 8 8 8 8
5 6 8 8 7 9 7 7 7 6 4 4 4 4 4 5 6 6 5 5 3 3 3 2 2 2 3 3 3 3 4 6 7 8 8 7 7 6
5 5 5 8 8 8 8 6 6 5 4 4 3 3 3 3 3 3 4 4 4 4 3 2 3 3 4 3 3 4 4 4 4 5 7 8 8 7
5 4 4 7 8 8 7 6 5 4 3 3 3 3 3 2 2 2 2 2 3 4 4 4 3 4 4 4 4 3 3 4 4 5 4 6 8 9
3 4 5 6 6 6 7 7 5 4 4 4 4 3 2 2 2 1 1 1 1 2 2 3 4 4 4 5 4 4 4 4 4 4 4 5 5 5
3 4 5 5 4 4 4 4 4 3 4 4 3 2 2 2 2 2 2 2 2 2 2 3 3 4 4 5 5 5 4 4 4 4 4 5 5 5
3 2 2 3 3 3 3 3 3 3 3 3 3 3 3 3 2 2 2 2 3 3 3 2 2 2 4 4 5 5 5 5 5 4 5 6 6 6
3 3 3 3 3 3 3 3 3 3 3 3 3 3 3 3 3 2 2 3 3 3 3 3 2 2 3 4 5 6 5 5 4 5 5 6 7 6
2 2 2 3 3 3 3 3 3 3 3 3 3 3 3 3 3 3 3 3 3 4 3 3 3 4 5 5 4 5 5 4 4 4 5 6 7 6
2 2 2 2 2 3 3 3 2 2 3 3 3 3 4 4 3 4 4 4 4 4 4 4 4 4 5 5 4 4 5 6 5 5 5 5 6 8
2 2 2 2 2 2 2 2 3 3 3 3 3 4 4 4 4 4 4 5 5 4 5 5 4 4 3 3 4 5 5 6 7 6 5 5 6 5
1 1 1 1 1 1 2 2 2 2 3 3 3 3 3 4 4 5 4 4 4 4 5 4 3 3 4 5 6 6 6 5 6 8 9 8 5 5
1 1 1 1 1 1 1 2 2 2 2 2 2 2 3 3 3 4 4 4 4 4 4 4 3 4 4 5 6 5 6 6 4 4 5 7 11 13
Wind_Direction
204 208 207 202 201 201 204 210 205 205 213 201 195 197 205 214 230 223 233 232 235 233 240 246 249 256 258 262 268 271 276 280 282 285 285 284 284 285
203 205 207 208 200 198 203 214 222 217 220 214 209 210 205 212 222 229 236 227 221 229 235 242 244 243 245 255 262 269 273 276 277 280 285 286 283 283
204 206 207 205 202 202 201 211 217 212 222 228 229 222 219 219 216 229 237 229 223 225 233 239 238 238 239 246 255 260 267 273 277 281 285 286 284 282
206 207 210 206 207 206 203 214 220 214 215 222 225 222 226 225 227 230 242 246 245 229 232 237 236 235 237 242 248 255 263 269 275 279 282 284 285 284
208 208 210 206 211 209 206 211 217 213 214 218 224 225 228 219 228 236 244 251 259 240 237 236 237 240 240 240 245 252 258 264 271 277 279 283 285 286
213 214 213 212 212 209 210 212 210 207 205 211 218 221 224 212 222 227 243 250 256 253 245 248 246 244 243 243 246 252 257 263 269 273 276 280 283 286
212 216 218 214 218 214 217 214 208 207 205 209 218 219 216 204 215 223 240 249 259 241 243 244 244 247 245 241 243 251 257 262 266 268 272 275 279 282
210 213 212 211 212 213 220 221 213 209 210 211 220 222 224 227 220 219 228 245 254 224 245 252 242 248 251 249 252 255 258 263 266 268 271 273 277 280
211 209 212 212 213 213 214 217 220 219 217 217 222 227 226 225 223 225 231 244 256 236 236 255 252 254 255 252 251 255 260 263 268 271 272 274 276 278
215 214 214 217 214 210 212 219 224 222 221 223 229 233 236 226 221 228 237 257 281 253 234 252 254 261 267 259 249 252 258 262 268 271 271 271 274 278
217 219 217 221 208 203 209 215 224 227 220 223 232 237 234 226 218 212 210 222 254 247 234 246 259 277 271 260 255 251 255 260 265 268 271 274 278 281
214 217 217 220 209 204 209 212 221 227 217 215 226 228 227 218 215 219 216 219 244 246 213 227 246 259 269 264 266 262 256 253 257 262 265 271 278 278
214 214 212 208 212 210 216 222 225 226 224 218 217 218 223 226 229 238 238 228 231 245 212 211 235 244 249 265 271 264 262 266 263 262 261 265 269 269
215 215 210 201 206 210 217 213 207 212 212 211 213 218 222 227 232 243 253 269 273 257 225 222 234 235 243 259 263 263 265 266 266 269 272 267 264 265
216 204 203 197 202 207 203 201 203 207 202 209 217 228 233 230 228 238 260 276 313 305 262 250 245 239 244 248 256 262 274 272 258 264 270 270 269 267
198 177 178 175 184 194 198 206 215 214 208 210 216 220 219 223 231 235 237 233 265 286 294 275 256 246 251 255 254 260 259 260 262 265 270 271 269 264
182 173 182 176 184 196 201 203 204 207 210 204 202 211 219 222 234 241 244 242 242 251 264 282 293 286 274 260 254 256 261 267 266 269 272 271 266 262
176 187 196 198 202 206 207 208 208 211 211 208 212 217 221 225 233 238 233 234 235 242 247 246 245 272 277 270 247 253 257 264 271 269 268 272 274 270
187 195 205 211 211 210 211 212 217 213 204 209 217 222 226 226 228 229 227 230 238 242 247 246 243 243 253 266 258 238 253 263 268 267 263 264 271 276
211 209 215 221 223 217 214 213 213 213 211 211 217 224 224 221 225 228 228 230 237 246 249 246 244 244 250 264 271 269 256 256 260 266 273 274 276 280
225 229 229 229 229 227 222 216 214 217 220 219 219 222 223 221 225 227 229 229 239 243 246 251 257 262 268 267 264 268 270 258 259 263 270 274 279 277
257 252 248 241 232 226 225 222 217 219 222 227 229 229 227 225 226 229 231 232 239 243 253 258 253 252 250 249 259 270 278 284 271 262 257 254 262 265
300 293 289 274 258 239 229 230 231 233 231 231 233 237 236 236 236 236 237 237 238 240 246 249 255 256 255 254 260 268 275 280 283 282 272 262 261 266